SCP
-0 -0 -0 -0 -0 -0 -0 -0 -0 -0 -0 -0 -0 -0 -0 -0 -0 -0 -0 -0 -0 -0 -0 -0 -0 0 0 0 -0 0 -0 -0 -0 -0 -0 0 0 0 -0 0 0 0 0
-0 -0 0 -0 -0 -0 -0 -0 -0 -0 -0 -0 -0 -0 -0 -0 -0 -0 -0 -0 -0 -0 -0 -0 -0 0 0 0 0 0 0 0 -0 -0 -0 0 0 0 0 0 -0 0 0
-0 -0 -0 0 -0 -0 -0 -0 -0 -0 -0 -0 -0 -0 -0 -0 -0 -0 -0 -0 -0 -0 -0 -0 0 0 0 0 0 0 0 -0 -0 -0 0 -0 0 0 -0 0 -0 -0 -0
-0 0 0 -0 0 -0 -0 -0 -0 -0 -0 -0 -0 -0 -0 -0 -0 -0 -0 -0 -0 -0 -0 0 0 0 -0 -0 0 -0 -0 -0 -0 0 -0 -0 0 -0 -0 -0 -0 -0 -0
0 -0 -0 -0 -0 -0 -0 -0 -0 -0 -0 -0 0 -0 -0 -0 -0 0 0 -0 0 -0 0 0 0 -0 -0 -0 0 -0 -0 -0 -0 -0 -0 0 0 -0 -0 -0 -0 -0 -0
0 0 -0 -0 -0 0 0 -0 -0 -0 -0 0 -0 0 -0 0 -0 0 0 -0 -0 0 0 0 0 -0 -0 -0 -0 -0 -0 -0 -0 -0 0 -0 -0 -0 -0 0 0 -0 -0
0 0 0 -0 -0 -0 -0 -0 -0 -0 -0 0 0 -0 -0 0 0 -0 0 0 0 0 0 0 0 0 -0 -0 -0 -0 -0 -0 0 0 0 0 -0 -0 -0 -0 -0 -0 0
0 0 0 0 -0 -0 -0 -0 -0 -0 -0 -0 -0 -0 -0 -0 0 0 0 0 -0 0 0 0 0 -0 0 -0 -0 -0 -0 -0 0 0 -0 0 -0 -0 -0 -0 0 0 -0
0 0 0 0 0 -0 -0 -0 -0 -0 0 -0 0 0 -0 -0 0 0 -0 -0 -0 -0 -0 0 0 -0 -0 -0 -0 -0 -0 -0 -0 0 0 0 -0 -0 -0 -0 0 -0 -0
0 0 0 0 0 0 0 -0 -0 -0 0 0 0 0 0 -0 0 -0 0 0 0 -0 -0 0 0 0 0 -0 -0 -0 -0 -0 -0 -0 0 0 -0 -0 -0 -0 -0 -0 -0
0 0 0 0 0 0 0 0 -0 0 0 0 -0 0 0 0 0 -0 0 -0 -0 -0 0 0 0 0 0 0 -0 -0 -0 -0 -0 -0 -0 0 -0 -0 -0 -0 -0 -0 -0
-0 0 0 0 0 0 0 0 0 0 0 0 0 0 0 0 0 -0 -0 -0 -0 -0 -0 0 0 0 0 0 0 -0 -0 -0 -0 -0 -0 -0 -0 -0 -0 -0 -0 -0 -0
-0 0 0 0 0 0 0 0 0 0 0 0 0 0 0 0 0 0 -0 -0 -0 0 0 0 0 0 0 0 -0 -0 -0 -0 -0 -0 -0 0 -0 -0 -0 -0 -0 -0 -0
-0 -0 -0 -0 0 -0 0 0 -0 0 0 0 0 0 0 0 0 0 0 0 0 -0 0 0 -0 -0 -0 -0 -0 -0 -0 -0 -0 -0 -0 -0 -0 -0 -0 -0 -0 -0 -0
-0 -0 -0 -0 -0 -0 -0 0 0 0 0 0 0 0 0 0 0 0 0 0 0 0 0 0 -0 0 -0 -0 -0 -0 -0 0 -0 -0 -0 -0 -0 -0 -0 -0 -0 -0 -0
-0 -0 -0 -0 -0 -0 -0 0 0 0 0 0 0 0 0 0 -0 -0 0 -0 0 0 0 0 -0 0 0 0 -0 0 0 0 -0 -0 -0 -0 0 0 0 -0 -0 -0 -0
0 -0 -0 -0 -0 -0 0 0 0 0 0 0 0 0 0 0 -0 0 -0 0 0 0 0 0 0 0 0 0 -0 0 0 -0 -0 0 -0 -0 -0 0 0 -0 -0 -0 0
0 0 -0 0 0 0 0 0 0 0 0 0 0 0 -0 -0 0 -0 -0 0 0 0 0 0 0 0 0 -0 -0 -0 0 0 0 -0 0 0 0 -0 -0 -0 -0 -0 -0
0 0 -0 0 0 0 0 0 0 0 0 0 0 0 0 0 0 -0 0 0 -0 0 0 0 0 0 0 0 0 0 0 0 0 0 0 -0 -0 -0 -0 0 0 -0 -0
0 0 0 0 0 0 0 0 0 0 0 0 0 0 0 0 -0 0 0 -0 0 0 0 0 -0 0 0 0 0 0 0 0 -0 -0 0 0 -0 -0 -0 -0 -0 0 -0
0 0 0 0 0 0 0 0 0 0 0 0 0 0 -0 0 -0 0 0 0 0 0 0 0 0 -0 0 0 0 0 0 0 0 -0 -0 -0 -0 -0 0 -0 -0 0 0
0 0 0 -0 0 0 0 0 0 0 0 0 0 0 -0 -0 -0 -0 0 0 -0 0 0 0 0 0 0 0 0 0 0 0 0 0 0 -0 -0 0 -0 -0 0 0 0
-0 -0 -0 0 -0 0 0 0 0 0 0 0 0 0 0 -0 -0 0 0 0 0 0 0 0 0 -0 0 -0 0 -0 0 0 0 0 0 -0 -0 0 0 -0 0 0 0
-0 -0 -0 -0 -0 -0 -0 0 0 0 0 0 0 0 0 0 -0 -0 0 -0 0 0 0 0 -0 0 0 0 0 0 -0 -0 -0 0 -0 -0 -0 0 0 -0 0 0 0
-0 0 -0 -0 -0 -0 -0 -0 0 0 0 0 0 0 0 0 -0 -0 -0 0 0 0 0 0 -0 0 0 -0 -0 -0 0 -0 0 -0 0 -0 0 -0 0 0 0 0 0
-0 -0 0 0 -0 -0 -0 0 0 -0 0 0 0 0 -0 -0 -0 -0 -0 0 0 0 -0 -0 -0 -0 -0 -0 -0 0 0 0 0 0 -0 0 0 -0 0 0 0 0 0
Wind_Speed_500mb
39 36 35 35 35 32 31 31 33 34 34 34 34 34 33 32 28 25 25 19 16 17 14 14 16 17 21 20 21 18 17 17 16 15 13 20 23 21 21 23 25 28 24
46 41 36 35 35 32 29 29 32 32 32 31 30 30 31 28 25 24 24 23 20 18 16 16 17 18 19 22 24 21 19 18 16 14 14 15 19 21 18 21 23 27 27
44 42 37 35 33 32 30 29 30 30 26 24 25 27 28 26 25 23 20 20 18 19 20 20 19 17 18 20 22 23 21 18 14 14 15 11 12 15 14 19 26 33 34
40 38 36 31 30 30 28 28 28 26 23 20 21 23 23 24 22 22 22 20 20 21 18 20 18 19 21 21 23 24 24 24 15 10 13 14 16 18 18 21 27 30 31
35 33 32 30 29 29 26 25 24 23 19 18 22 21 23 23 22 23 21 23 21 19 21 24 26 22 19 18 22 23 20 17 15 10 8 11 16 16 16 19 22 26 29
32 32 32 31 28 27 26 22 22 22 21 18 21 21 23 22 22 22 22 21 24 23 23 27 26 24 22 20 17 16 14 12 15 14 6 5 11 14 17 19 20 23 25
33 31 27 27 28 25 23 19 20 22 21 20 22 21 21 21 21 22 19 19 21 21 22 19 20 18 17 19 20 16 13 16 16 14 6 4 9 12 16 19 20 22 24
32 29 26 23 22 20 17 16 20 23 23 19 20 21 19 19 18 18 18 19 18 17 17 17 16 17 17 18 18 19 16 20 14 14 6 5 10 12 14 17 19 20 22
26 25 24 23 19 16 16 19 20 28 25 19 17 16 16 16 15 15 15 17 16 13 13 15 15 14 15 14 19 15 14 17 19 13 11 6 8 14 17 17 18 19 21
18 23 23 21 19 19 16 14 26 32 26 18 14 18 18 18 18 17 16 14 13 11 10 10 11 11 14 16 17 15 17 15 18 15 11 5 6 13 17 17 16 18 21
20 23 23 20 22 20 15 19 29 31 24 16 16 23 20 21 19 17 17 15 13 10 7 6 6 8 12 15 19 7 17 13 10 24 7 7 10 13 18 17 17 18 20
25 21 21 22 22 19 16 23 31 34 23 19 23 21 22 19 13 14 13 13 12 8 4 1 7 12 12 13 6 23 17 14 17 13 8 12 15 17 18 19 17 18 19
26 22 22 21 20 16 24 27 30 28 22 24 24 16 19 15 15 14 15 13 7 3 4 12 8 10 12 16 12 15 26 26 25 12 9 15 17 19 18 16 15 15 20
24 22 20 20 20 21 30 26 28 22 21 24 19 17 12 14 11 8 8 10 14 8 6 8 25 16 8 7 13 19 24 32 27 20 15 17 17 15 16 16 15 14 18
32 25 21 19 23 25 29 23 31 21 25 20 17 16 16 10 4 6 8 10 9 14 20 15 13 9 10 6 14 15 27 30 28 30 20 15 14 13 13 12 13 11 15
33 29 22 20 21 29 28 23 30 24 24 19 15 15 13 8 2 1 2 6 16 11 13 14 25 3 11 1 6 15 22 24 22 23 21 14 14 14 13 13 7 6 9
35 31 23 20 26 29 30 29 27 25 22 22 23 14 17 7 4 3 6 9 12 11 15 6 11 14 6 8 7 7 14 19 23 16 18 14 15 17 18 14 5 3 5
36 33 30 25 28 28 31 28 26 19 20 28 24 16 12 11 7 4 5 10 10 10 14 14 9 10 16 11 7 7 5 13 19 17 17 19 21 17 18 13 7 6 12
36 36 35 34 29 26 29 23 19 21 24 25 19 9 10 13 5 10 7 6 8 8 10 9 9 11 11 4 8 10 7 8 3 14 21 17 22 18 20 15 7 8 14
39 36 37 37 33 27 29 23 20 28 18 24 17 11 6 6 11 10 15 15 12 11 7 9 6 9 6 8 14 14 9 17 11 9 13 9 21 21 27 18 12 3 10
42 40 46 42 35 34 37 31 23 33 18 25 15 12 14 6 7 13 14 19 16 16 11 10 8 9 7 2 9 14 13 11 17 19 12 17 19 17 20 19 11 2 7
39 41 47 45 38 37 36 34 20 22 19 18 19 16 20 12 7 10 14 22 20 15 12 11 11 8 4 1 4 11 8 4 8 10 8 11 20 21 19 12 11 5 3
42 44 48 49 42 37 35 33 27 22 21 22 19 21 19 11 8 6 10 12 15 16 15 16 13 11 6 8 7 7 7 6 16 15 10 13 20 19 12 11 8 2 5
38 40 44 48 44 41 39 37 34 32 27 23 23 14 18 14 10 12 14 12 12 12 13 13 8 8 2 6 3 2 4 8 11 9 10 13 16 15 13 12 4 1 3
36 43 45 47 45 41 44 41 38 39 31 23 19 21 24 21 16 17 16 14 11 14 13 12 15 9 11 6 1 5 4 5 8 11 14 18 14 11 13 11 5 10 9
42 44 48 47 48 45 46 46 46 44 39 33 27 23 24 30 26 21 17 17 11 12 18 12 13 11 9 8 3 3 2 4 5 6 8 18 15 14 13 19 11 10 9
Wind_Direction_500mb
163 162 154 154 157 152 144 145 139 138 138 143 146 145 149 150 154 163 172 167 166 158 155 155 163 157 152 155 166 177 180 182 188 191 179 182 191 194 194 190 182 173 168
157 160 156 153 156 159 152 149 145 143 140 143 150 159 168 171 168 166 161 161 164 161 146 147 149 148 145 153 161 163 161 160 165 166 168 159 164 169 170 175 171 163 182
162 162 160 158 160 161 158 153 150 147 142 144 155 164 169 168 169 166 163 163 152 145 146 140 141 141 143 151 149 149 143 143 149 152 155 152 152 157 156 162 165 167 177
166 167 165 166 168 167 164 160 156 154 146 144 148 155 162 167 164 159 153 141 140 137 145 148 147 141 142 146 145 144 144 147 122 133 153 153 168 168 168 164 163 166 171
168 169 168 163 168 170 167 166 163 161 153 151 151 152 144 138 136 143 139 143 145 141 136 136 133 137 140 141 146 143 147 141 155 155 135 172 178 169 175 170 166 166 170
166 168 167 164 166 165 165 168 168 164 159 154 156 150 141 139 133 129 123 121 128 126 132 133 134 140 140 147 152 152 147 146 156 156 162 177 192 184 188 179 171 174 178
167 167 168 166 166 166 164 167 169 165 162 162 159 155 145 138 134 128 128 132 132 139 139 137 141 139 144 163 168 168 163 148 138 133 136 172 175 186 192 194 190 189 187
172 173 175 173 175 173 181 190 181 159 162 156 153 143 137 133 131 130 144 139 136 147 138 138 135 136 141 152 164 176 174 148 148 147 131 182 177 190 190 195 194 202 211
169 181 187 185 187 192 185 184 166 158 162 155 155 130 133 130 131 136 139 141 145 132 141 147 142 143 140 150 161 159 159 164 174 171 134 157 177 194 200 204 206 211 221
210 207 199 194 184 179 169 160 159 163 165 159 142 136 132 129 123 123 121 139 141 152 151 154 159 168 155 158 176 167 162 171 190 189 150 186 246 220 210 208 206 215 224
205 202 204 193 186 182 177 151 157 165 166 159 145 141 134 122 122 126 125 134 151 166 175 200 208 217 207 205 167 170 178 193 195 195 247 248 256 243 221 218 218 227 229
199 195 196 192 190 191 165 157 162 161 155 156 143 143 125 121 117 126 125 117 121 108 118 264 241 241 255 271 199 217 215 215 198 206 244 251 268 261 238 224 223 235 241
195 199 191 194 196 184 157 162 156 152 149 146 146 141 124 124 121 110 93 76 71 100 222 10 343 303 288 244 238 231 223 213 207 215 255 258 257 268 249 236 227 241 254
203 185 185 184 184 162 158 162 161 154 146 151 148 151 144 136 129 97 75 58 50 25 15 17 10 351 24 234 224 226 213 205 209 228 274 261 255 252 238 231 239 253 263
194 189 188 182 180 169 163 164 160 160 159 159 156 158 161 152 137 43 74 40 355 12 27 18 1 275 262 281 228 195 188 203 228 234 249 246 225 223 226 237 254 271 269
204 202 188 178 182 179 177 169 165 164 172 172 174 160 168 170 157 1 85 77 33 13 5 3 40 3 279 39 164 182 178 183 204 222 229 240 217 202 199 229 259 286 268
203 202 191 183 177 175 175 171 176 168 168 185 171 167 173 168 156 254 94 69 37 24 26 41 23 71 316 135 139 149 209 197 198 213 222 237 215 201 192 196 195 48 1
213 205 196 196 184 178 175 177 173 178 169 181 183 189 201 201 197 228 74 78 24 6 33 31 19 60 56 78 93 158 218 222 211 226 230 223 210 211 205 199 167 74 24
215 212 209 198 190 178 182 177 181 180 172 189 203 202 173 200 221 246 283 334 345 4 28 22 33 22 14 227 229 246 238 247 238 252 246 245 221 221 216 202 152 67 33
212 211 213 197 194 191 196 199 198 189 172 173 189 195 132 156 210 258 249 264 301 320 315 352 333 348 340 243 225 226 233 229 220 212 222 227 208 217 211 202 174 128 20
212 205 201 208 200 203 205 199 195 204 214 201 211 206 184 180 190 230 237 257 276 297 283 300 314 312 307 56 195 251 240 228 222 221 227 182 169 184 199 197 192 207 16
206 206 204 204 202 201 197 196 205 202 216 215 216 224 207 216 244 270 264 251 258 271 255 276 283 283 217 17 202 202 194 247 203 178 165 152 182 188 198 201 193 183 296
206 206 207 205 206 201 196 201 215 219 219 218 220 226 221 240 239 260 238 251 274 257 261 246 261 251 237 73 155 194 183 177 164 177 164 163 193 202 200 159 149 165 240
210 210 206 202 201 204 206 211 215 216 217 218 220 229 239 250 254 225 228 274 309 244 265 249 222 243 174 132 65 354 40 157 181 181 156 158 185 193 173 147 180 123 221
209 210 210 210 210 209 207 213 215 216 223 222 224 237 247 239 247 235 240 263 314 249 258 220 221 246 220 174 38 353 47 122 162 165 175 194 193 155 185 176 214 234 248
216 213 209 212 214 213 212 214 219 223 226 233 236 230 237 241 242 238 245 257 281 242 226 215 210 229 199 204 237 19 56 136 204 189 191 203 199 216 214 217 237 233 253
Wind_Speed_850mb
39 36 35 35 35 32 31 31 33 34 34 34 34 34 33 32 28 25 25 19 16 17 14 14 16 17 21 20 21 18 17 17 16 15 13 20 23 21 21 23 25 28 24
46 41 36 35 35 32 29 29 32 32 32 31 30 30 31 28 25 24 24 23 20 18 16 16 17 18 19 22 24 21 19 18 16 14 14 15 19 21 18 21 23 27 27
44 42 37 35 33 32 30 29 30 30 26 24 25 27 28 26 25 23 20 20 18 19 20 20 19 17 18 20 22 23 21 18 14 14 15 11 12 15 14 19 26 33 34
40 38 36 31 30 30 28 28 28 26 23 20 21 23 23 24 22 22 22 20 20 21 18 20 18 19 21 21 23 24 24 24 15 10 13 14 16 18 18 21 27 30 31
35 33 32 30 29 29 26 25 24 23 19 18 22 21 23 23 22 23 21 23 21 19 21 24 26 22 19 18 22 23 20 17 15 10 8 11 16 16 16 19 22 26 29
32 32 32 31 28 27 26 22 22 22 21 18 21 21 23 22 22 22 22 21 24 23 23 27 26 24 22 20 17 16 14 12 15 14 6 5 11 14 17 19 20 23 25
33 31 27 27 28 25 23 19 20 22 21 20 22 21 21 21 21 22 19 19 21 21 22 19 20 18 17 19 20 16 13 16 16 14 6 4 9 12 16 19 20 22 24
32 29 26 23 22 20 17 16 20 23 23 19 20 21 19 19 18 18 18 19 18 17 17 17 16 17 17 18 18 19 16 20 14 14 6 5 10 12 14 17 19 20 22
26 25 24 23 19 16 16 19 20 28 25 19 17 16 16 16 15 15 15 17 16 13 13 15 15 14 15 14 19 15 14 17 19 13 11 6 8 14 17 17 18 19 21
18 23 23 21 19 19 16 14 26 32 26 18 14 18 18 18 18 17 16 14 13 11 10 10 11 11 14 16 17 15 17 15 18 15 11 5 6 13 17 17 16 18 21
20 23 23 20 22 20 15 19 29 31 24 16 16 23 20 21 19 17 17 15 13 10 7 6 6 8 12 15 19 7 17 13 10 24 7 7 10 13 18 17 17 18 20
25 21 21 22 22 19 16 23 31 34 23 19 23 21 22 19 13 14 13 13 12 8 4 1 7 12 12 13 6 23 17 14 17 13 8 12 15 17 18 19 17 18 19
26 22 22 21 20 16 24 27 30 28 22 24 24 16 19 15 15 14 15 13 7 3 4 12 8 10 12 16 12 15 26 26 25 12 9 15 17 19 18 16 15 15 20
24 22 20 20 20 21 30 26 28 22 21 24 19 17 12 14 11 8 8 10 14 8 6 8 25 16 8 7 13 19 24 32 27 20 15 17 17 15 16 16 15 14 18
32 25 21 19 23 25 29 23 31 21 25 20 17 16 16 10 4 6 8 10 9 14 20 15 13 9 10 6 14 15 27 30 28 30 20 15 14 13 13 12 13 11 15
33 29 22 20 21 29 28 23 30 24 24 19 15 15 13 8 2 1 2 6 16 11 13 14 25 3 11 1 6 15 22 24 22 23 21 14 14 14 13 13 7 6 9
35 31 23 20 26 29 30 29 27 25 22 22 23 14 17 7 4 3 6 9 12 11 15 6 11 14 6 8 7 7 14 19 23 16 18 14 15 17 18 14 5 3 5
36 33 30 25 28 28 31 28 26 19 20 28 24 16 12 11 7 4 5 10 10 10 14 14 9 10 16 11 7 7 5 13 19 17 17 19 21 17 18 13 7 6 12
36 36 35 34 29 26 29 23 19 21 24 25 19 9 10 13 5 10 7 6 8 8 10 9 9 11 11 4 8 10 7 8 3 14 21 17 22 18 20 15 7 8 14
39 36 37 37 33 27 29 23 20 28 18 24 17 11 6 6 11 10 15 15 12 11 7 9 6 9 6 8 14 14 9 17 11 9 13 9 21 21 27 18 12 3 10
42 40 46 42 35 34 37 31 23 33 18 25 15 12 14 6 7 13 14 19 16 16 11 10 8 9 7 2 9 14 13 11 17 19 12 17 19 17 20 19 11 2 7
39 41 47 45 38 37 36 34 20 22 19 18 19 16 20 12 7 10 14 22 20 15 12 11 11 8 4 1 4 11 8 4 8 10 8 11 20 21 19 12 11 5 3
42 44 48 49 42 37 35 33 27 22 21 22 19 21 19 11 8 6 10 12 15 16 15 16 13 11 6 8 7 7 7 6 16 15 10 13 20 19 12 11 8 2 5
38 40 44 48 44 41 39 37 34 32 27 23 23 14 18 14 10 12 14 12 12 12 13 13 8 8 2 6 3 2 4 8 11 9 10 13 16 15 13 12 4 1 3
36 43 45 47 45 41 44 41 38 39 31 23 19 21 24 21 16 17 16 14 11 14 13 12 15 9 11 6 1 5 4 5 8 11 14 18 14 11 13 11 5 10 9
42 44 48 47 48 45 46 46 46 44 39 33 27 23 24 30 26 21 17 17 11 12 18 12 13 11 9 8 3 3 2 4 5 6 8 18 15 14 13 19 11 10 9
Wind_Direction_850mb
163 162 154 154 157 152 144 145 139 138 138 143 146 145 149 150 154 163 172 167 166 158 155 155 163 157 152 155 166 177 180 182 188 191 179 182 191 194 194 190 182 173 168
157 160 156 153 156 159 152 149 145 143 140 143 150 159 168 171 168 166 161 161 164 161 146 147 149 148 145 153 161 163 161 160 165 166 168 159 164 169 170 175 171 163 182
162 162 160 158 160 161 158 153 150 147 142 144 155 164 169 168 169 166 163 163 152 145 146 140 141 141 143 151 149 149 143 143 149 152 155 152 152 157 156 162 165 167 177
166 167 165 166 168 167 164 160 156 154 146 144 148 155 162 167 164 159 153 141 140 137 145 148 147 141 142 146 145 144 144 147 122 133 153 153 168 168 168 164 163 166 171
168 169 168 163 168 170 167 166 163 161 153 151 151 152 144 138 136 143 139 143 145 141 136 136 133 137 140 141 146 143 147 141 155 155 135 172 178 169 175 170 166 166 170
166 168 167 164 166 165 165 168 168 164 159 154 156 150 141 139 133 129 123 121 128 126 132 133 134 140 140 147 152 152 147 146 156 156 162 177 192 184 188 179 171 174 178
167 167 168 166 166 166 164 167 169 165 162 162 159 155 145 138 134 128 128 132 132 139 139 137 141 139 144 163 168 168 163 148 138 133 136 172 175 186 192 194 190 189 187
172 173 175 173 175 173 181 190 181 159 162 156 153 143 137 133 131 130 144 139 136 147 138 138 135 136 141 152 164 176 174 148 148 147 131 182 177 190 190 195 194 202 211
169 181 187 185 187 192 185 184 166 158 162 155 155 130 133 130 131 136 139 141 145 132 141 147 142 143 140 150 161 159 159 164 174 171 134 157 177 194 200 204 206 211 221
210 207 199 194 184 179 169 160 159 163 165 159 142 136 132 129 123 123 121 139 141 152 151 154 159 168 155 158 176 167 162 171 190 189 150 186 246 220 210 208 206 215 224
205 202 204 193 186 182 177 151 157 165 166 159 145 141 134 122 122 126 125 134 151 166 175 200 208 217 207 205 167 170 178 193 195 195 247 248 256 243 221 218 218 227 229
199 195 196 192 190 191 165 157 162 161 155 156 143 143 125 121 117 126 125 117 121 108 118 264 241 241 255 271 199 217 215 215 198 206 244 251 268 261 238 224 223 235 241
195 199 191 194 196 184 157 162 156 152 149 146 146 141 124 124 121 110 93 76 71 100 222 10 343 303 288 244 238 231 223 213 207 215 255 258 257 268 249 236 227 241 254
203 185 185 184 184 162 158 162 161 154 146 151 148 151 144 136 129 97 75 58 50 25 15 17 10 351 24 234 224 226 213 205 209 228 274 261 255 252 238 231 239 253 263
194 189 188 182 180 169 163 164 160 160 159 159 156 158 161 152 137 43 74 40 355 12 27 18 1 275 262 281 228 195 188 203 228 234 249 246 225 223 226 237 254 271 269
204 202 188 178 182 179 177 169 165 164 172 172 174 160 168 170 157 1 85 77 33 13 5 3 40 3 279 39 164 182 178 183 204 222 229 240 217 202 199 229 259 286 268
203 202 191 183 177 175 175 171 176 168 168 185 171 167 173 168 156 254 94 69 37 24 26 41 23 71 316 135 139 149 209 197 198 213 222 237 215 201 192 196 195 48 1
213 205 196 196 184 178 175 177 173 178 169 181 183 189 201 201 197 228 74 78 24 6 33 31 19 60 56 78 93 158 218 222 211 226 230 223 210 211 205 199 167 74 24
215 212 209 198 190 178 182 177 181 180 172 189 203 202 173 200 221 246 283 334 345 4 28 22 33 22 14 227 229 246 238 247 238 252 246 245 221 221 216 202 152 67 33
212 211 213 197 194 191 196 199 198 189 172 173 189 195 132 156 210 258 249 264 301 320 315 352 333 348 340 243 225 226 233 229 220 212 222 227 208 217 211 202 174 128 20
212 205 201 208 200 203 205 199 195 204 214 201 211 206 184 180 190 230 237 257 276 297 283 300 314 312 307 56 195 251 240 228 222 221 227 182 169 184 199 197 192 207 16
206 206 204 204 202 201 197 196 205 202 216 215 216 224 207 216 244 270 264 251 258 271 255 276 283 283 217 17 202 202 194 247 203 178 165 152 182 188 198 201 193 183 296
206 206 207 205 206 201 196 201 215 219 219 218 220 226 221 240 239 260 238 251 274 257 261 246 261 251 237 73 155 194 183 177 164 177 164 163 193 202 200 159 149 165 240
210 210 206 202 201 204 206 211 215 216 217 218 220 229 239 250 254 225 228 274 309 244 265 249 222 243 174 132 65 354 40 157 181 181 156 158 185 193 173 147 180 123 221
209 210 210 210 210 209 207 213 215 216 223 222 224 237 247 239 247 235 240 263 314 249 258 220 221 246 220 174 38 353 47 122 162 165 175 194 193 155 185 176 214 234 248
216 213 209 212 214 213 212 214 219 223 226 233 236 230 237 241 242 238 245 257 281 242 226 215 210 229 199 204 237 19 56 136 204 189 191 203 199 216 214 217 237 233 253